Alameda, CA

7:37 AM PST on December 05, 2016 (GMT -0800)
Metro Oakland International

Weather History for KOAK - October, 2013

Change the Weather History Date:

Sunday, October 6, 2013

  Actual Average Record
Temperature  
Mean Temperature 66 °F 62 °F  
Max Temperature 84 °F 72 °F 89 °F (1972)
Min Temperature 48 °F 53 °F 45 °F (2009)
Degree Days  
Heating Degree Days 0 4  
Month to date heating degree days 8 19  
Since 1 July heating degree days 112 219  
Cooling Degree Days 1 1  
Month to date cooling degree days 13 6  
Year to date cooling degree days 212 131  
Growing Degree Days 16 (Base 50)    
Moisture  
Dew Point 40 °F    
Average Humidity 45    
Maximum Humidity 74    
Minimum Humidity 15    
Precipitation  
Precipitation 0.00 in 0.03 in 0.40 in (2011)
Month to date precipitation 0.00 0.11  
Year to date precipitation 3.43 13.61  
Since 1 July precipitation 0.61  
Sea Level Pressure  
Sea Level Pressure 30.07 in    
Wind  
Wind Speed 5 mph (NNW)    
Max Wind Speed 12 mph    
Max Gust Speed 14 mph    
Visibility 10 miles    
Events      
T = Trace of Precipitation, MM = Missing Value Source: NWS Daily Summary

Daily Weather History Graph

Daily Weather History Graph

Search for Another Location

Airport or City:

Trip Planner

Search our weather history database for the weather conditions in past years. The results will help you decide how hot, cold, wet, or windy it might be!

Date:

Astronomy

Oct. 06, 2013 Rise Set
Actual Time 7:09 AM PDT 6:43 PM PDT
Civil Twilight 6:43 AM PDT 7:10 PM PDT
Nautical Twilight 6:12 AM PDT 7:40 PM PDT
Astronomical Twilight 5:42 AM PDT 8:10 PM PDT
Moon 8:57 AM PDT (10/6) 7:50 PM PDT (10/6)
Length of Visible Light 12h 27m
Length of Day
11h 34m
Waxing Crescent, 4% of the Moon is Illuminated
Oct 6
Waxing Crescent
Oct 11
First Quarter
Oct 18
Full
Oct 26
Last Quarter
Nov 3
New

Hourly Weather History & Observations

Time (PDT) Temp. Dew Point Humidity Pressure Visibility Wind Dir Wind Speed Gust Speed Precip Events Conditions
12:53 AM 57.0 °F 42.1 °F 57% 30.12 in 10.0 mi Calm Calm - N/A   Clear
1:53 AM 57.9 °F 39.9 °F 51% 30.12 in 10.0 mi NE 3.5 mph - N/A   Clear
2:53 AM 53.1 °F 39.9 °F 61% 30.11 in 10.0 mi Calm Calm - N/A   Clear
3:53 AM 51.1 °F 39.0 °F 63% 30.09 in 10.0 mi NE 3.5 mph - N/A   Clear
4:53 AM 53.1 °F 39.0 °F 59% 30.09 in 10.0 mi NE 3.5 mph - N/A   Clear
5:53 AM 50.0 °F 42.1 °F 74% 30.09 in 10.0 mi NE 3.5 mph - N/A   Clear
6:53 AM 48.0 °F 37.0 °F 66% 30.10 in 10.0 mi ENE 3.5 mph - N/A   Scattered Clouds
7:53 AM 54.0 °F 41.0 °F 62% 30.11 in 10.0 mi Calm Calm - N/A   Scattered Clouds
8:53 AM 62.1 °F 42.1 °F 48% 30.12 in 10.0 mi NNE 3.5 mph - N/A   Scattered Clouds
9:53 AM 64.9 °F 44.1 °F 47% 30.12 in 10.0 mi West 4.6 mph - N/A   Scattered Clouds
10:53 AM 69.1 °F 46.9 °F 45% 30.12 in 10.0 mi West 5.8 mph - N/A   Mostly Cloudy
11:53 AM 68.0 °F 43.0 °F 40% 30.10 in 10.0 mi West 8.1 mph - N/A   Mostly Cloudy
12:53 PM 72.0 °F 45.0 °F 38% 30.09 in 10.0 mi WNW 6.9 mph - N/A   Mostly Cloudy
1:53 PM 78.1 °F 43.0 °F 29% 30.06 in 10.0 mi West 9.2 mph - N/A   Mostly Cloudy
2:53 PM 79.0 °F 41.0 °F 26% 30.04 in 10.0 mi WNW 10.4 mph - N/A   Mostly Cloudy
3:53 PM 84.0 °F 32.0 °F 15% 30.03 in 10.0 mi WNW 9.2 mph - N/A   Mostly Cloudy
4:53 PM 81.0 °F 39.0 °F 22% 30.02 in 10.0 mi NW 10.4 mph - N/A   Mostly Cloudy
5:53 PM 73.9 °F 44.1 °F 34% 30.01 in 10.0 mi NW 9.2 mph - N/A   Mostly Cloudy
6:53 PM 71.1 °F 43.0 °F 36% 30.02 in 10.0 mi NW 8.1 mph - N/A   Mostly Cloudy
7:53 PM 69.1 °F 39.9 °F 35% 30.02 in 10.0 mi Calm Calm - N/A   Mostly Cloudy
8:53 PM 66.9 °F 37.0 °F 33% 30.01 in 10.0 mi North 4.6 mph - N/A   Mostly Cloudy
9:53 PM 66.9 °F 34.0 °F 30% 30.02 in 10.0 mi NNW 3.5 mph - N/A   Scattered Clouds
10:53 PM 63.0 °F 35.1 °F 35% 30.01 in 10.0 mi Calm Calm - N/A   Scattered Clouds
11:53 PM 63.0 °F 39.9 °F 43% 30.00 in 10.0 mi Calm Calm - N/A   Scattered Clouds